Location: *
(50.3194°N, 7.1067°E)
Time: 20:59:50
(UTC+00:00)

Cosmos 1605 Rocket - Pass Details

Date: 22 September 2019
Orbit: 945 x 1005 km, 82.9° (Epoch: 15 October)

Event Time Altitude Azimuth Distance (km) Brightness Sun altitude
Rises 20:32:59 0° 351° (N) 3,744 7.7 -27.8°
Reaches altitude 10° 20:35:34 10° 355° (N) 2,786 6.9 -28.1°
Enters shadow 20:41:34 62° 59° (ENE) 1,118 4.1 -28.8°
